INMARSAT 3-F4

Last updated on May 16, 2016, 3:39 p.m. UTC

1 24819U 97027A   16137.40611400  .00000090  00000-0  00000+0 0  9991
2 24819   5.0711  59.8613 0010346 339.8837 200.5261  0.99497357 69416
UTC
Height (km)
Latitude
Longitude
Inclination
Orbital Period
UTC large
Height (km)
Speed (km/s)
/
Latitude / Longitude
Inclination (degrees)
Orbital Period (minutes)
Azimuth
Elevation
Range (km)
Doppler Factor
iOS Compass Heading
iOS Angle

Next 30 passes for location: Hong Kong

Rise time Rise Azimuth (degrees) Set time Set Azimuth (degrees) Duration Max altitude (degrees)

No matching passes for this satellites